Jackson, MN

10:53 AM CST on January 20, 2017 (GMT -0600)
Jackson Municipal

Weather History for KMJQ - March, 2013

Change the Weather History Date:

Saturday, March 16, 2013

  Actual Average Record
Temperature  
Mean Temperature 24 °F -  
Max Temperature 32 °F 36 °F 78 °F (2012)
Min Temperature 17 °F 22 °F 14 °F (2005)
Degree Days  
Heating Degree Days 40    
Moisture  
Dew Point 20 °F    
Average Humidity 85    
Maximum Humidity 100    
Minimum Humidity 73    
Precipitation  
Precipitation 0.00 in - - ()
Sea Level Pressure  
Sea Level Pressure 30.07 in    
Wind  
Wind Speed 13 mph (NNW)    
Max Wind Speed 23 mph    
Max Gust Speed 28 mph    
Visibility 8 miles    
Events Snow    
Averages and records for this station are not official NWS values.
T = Trace of Precipitation, MM = Missing Value Source: NWS Daily Summary

Daily Weather History Graph

Daily Weather History Graph

Search for Another Location

Airport or City:

Trip Planner

Search our weather history database for the weather conditions in past years. The results will help you decide how hot, cold, wet, or windy it might be!

Date:

Astronomy

Mar. 16, 2013 Rise Set
Actual Time 7:29 AM CDT 7:27 PM CDT
Civil Twilight 7:01 AM CDT 7:56 PM CDT
Nautical Twilight 6:27 AM CDT 8:29 PM CDT
Astronomical Twilight 5:54 AM CDT 9:03 PM CDT
Moon 9:50 AM CDT (3/16) No Moon Set
Length of Visible Light 12h 55m
Length of Day
11h 57m
Waxing Crescent, 23% of the Moon is Illuminated
Mar 16
Waxing Crescent
Mar 19
First Quarter
Mar 27
Full
Apr 2
Last Quarter
Apr 10
New

Hourly Weather History & Observations

Time (CDT) Temp. Windchill Dew Point Humidity Pressure Visibility Wind Dir Wind Speed Gust Speed Precip Events Conditions
12:13 AM 32.0 °F 23.6 °F 32.0 °F 100% 29.85 in 1.8 mi NNW 10.4 mph - N/A   Overcast
12:32 AM 32.0 °F 25.6 °F 32.0 °F 100% 29.85 in 2.0 mi North 6.9 mph - N/A   Overcast
12:53 AM 32.0 °F 22.5 °F 32.0 °F 100% 29.86 in 2.0 mi North 12.7 mph 16.1 mph N/A   Overcast
1:13 AM 32.0 °F 22.5 °F 30.2 °F 93% 29.86 in 2.5 mi North 12.7 mph - N/A   Overcast
1:32 AM 32.0 °F 24.2 °F 30.2 °F 93% 29.86 in 3.0 mi North 9.2 mph - N/A   Overcast
1:53 AM 32.0 °F 23.0 °F 30.2 °F 93% 29.86 in 2.0 mi North 11.5 mph - N/A   Overcast
2:12 AM 32.0 °F 24.2 °F 30.2 °F 93% 29.88 in 2.5 mi NNW 9.2 mph 18.4 mph N/A   Overcast
2:32 AM 32.0 °F 23.6 °F 30.2 °F 93% 29.89 in 3.0 mi North 10.4 mph 16.1 mph N/A   Overcast
2:53 AM 32.0 °F 24.2 °F 30.2 °F 93% 29.90 in 4.0 mi NNW 9.2 mph 18.4 mph N/A   Overcast
3:12 AM 32.0 °F 24.8 °F 30.2 °F 93% 29.91 in 4.0 mi North 8.1 mph 17.3 mph N/A   Overcast
3:32 AM 30.2 °F 18.9 °F 28.4 °F 93% 29.92 in 7.0 mi NNW 16.1 mph 23.0 mph N/A   Overcast
3:53 AM 30.2 °F 20.8 °F 28.4 °F 93% 29.93 in 7.0 mi NNW 11.5 mph 23.0 mph N/A   Overcast
4:12 AM 30.2 °F 20.2 °F 26.6 °F 86% 29.94 in 5.0 mi NNW 12.7 mph 21.9 mph N/A   Overcast
4:32 AM 30.2 °F 18.5 °F 26.6 °F 86% 29.95 in 7.0 mi NNW 17.3 mph 25.3 mph N/A   Overcast
4:53 AM 28.4 °F 14.4 °F 26.6 °F 93% 29.96 in 10.0 mi NNW 23.0 mph 27.6 mph N/A   Overcast
5:12 AM 28.4 °F 15.1 °F 26.6 °F 93% 29.97 in 7.0 mi NNW 20.7 mph 25.3 mph N/A   Overcast
5:33 AM 28.4 °F 16.2 °F 24.8 °F 86% 29.98 in 10.0 mi NNW 17.3 mph 26.5 mph N/A   Overcast
5:53 AM 28.4 °F 15.8 °F 24.8 °F 86% 29.99 in 10.0 mi NNW 18.4 mph 27.6 mph N/A   Overcast
6:12 AM 26.6 °F 12.4 °F 24.8 °F 93% 30.01 in 7.0 mi NNW 21.9 mph 27.6 mph N/A   Overcast
6:33 AM 26.6 °F 12.4 °F 23.0 °F 86% 30.03 in 4.0 mi NW 21.9 mph - N/A   Overcast
6:53 AM 26.6 °F 13.4 °F 23.0 °F 86% 30.03 in 7.0 mi NW 18.4 mph 21.9 mph N/A   Overcast
7:12 AM 26.6 °F 12.7 °F 23.0 °F 86% 30.06 in 7.0 mi NW 20.7 mph 24.2 mph N/A   Overcast
7:33 AM 24.8 °F 10.7 °F 23.0 °F 93% 30.06 in 7.0 mi NW 19.6 mph 25.3 mph N/A   Overcast
7:53 AM 24.8 °F 10.3 °F 21.2 °F 86% 30.07 in 7.0 mi NW 20.7 mph 27.6 mph N/A   Overcast
8:12 AM 23.0 °F 8.0 °F 21.2 °F 93% 30.08 in 7.0 mi NW 20.7 mph - N/A   Overcast
8:33 AM 23.0 °F 8.3 °F 21.2 °F 93% 30.08 in 10.0 mi NW 19.6 mph - N/A   Overcast
8:52 AM 23.0 °F 8.7 °F 19.4 °F 86% 30.09 in 10.0 mi NW 18.4 mph 21.9 mph N/A   Overcast
9:13 AM 23.0 °F 8.7 °F 19.4 °F 86% 30.09 in 7.0 mi NW 18.4 mph 26.5 mph N/A Snow Light Snow
9:33 AM 23.0 °F 10.1 °F 19.4 °F 86% 30.10 in 7.0 mi NW 15.0 mph 27.6 mph N/A Snow Light Snow
9:52 AM 23.0 °F 9.6 °F 19.4 °F 86% 30.10 in 10.0 mi NNW 16.1 mph - N/A Snow Light Snow
10:13 AM 21.2 °F 7.8 °F 19.4 °F 93% 30.10 in 7.0 mi NNW 15.0 mph 24.2 mph N/A Snow Light Snow
10:33 AM 21.2 °F 7.8 °F 19.4 °F 93% 30.11 in 7.0 mi NNW 15.0 mph 24.2 mph N/A Snow Light Snow
10:52 AM 23.0 °F 7.6 °F 19.4 °F 86% 30.10 in 10.0 mi NNW 21.9 mph 25.3 mph N/A   Overcast
11:12 AM 23.0 °F 11.1 °F 19.4 °F 86% 30.11 in 10.0 mi North 12.7 mph 23.0 mph N/A   Overcast
11:33 AM 23.0 °F 11.1 °F 17.6 °F 80% 30.11 in 10.0 mi NNW 12.7 mph 23.0 mph N/A   Mostly Cloudy
11:52 AM 23.0 °F 10.6 °F 19.4 °F 86% 30.11 in 10.0 mi North 13.8 mph 21.9 mph N/A   Overcast
12:12 PM 23.0 °F 11.7 °F 19.4 °F 86% 30.12 in 10.0 mi North 11.5 mph 21.9 mph N/A   Mostly Cloudy
12:33 PM 23.0 °F 10.6 °F 19.4 °F 86% 30.13 in 10.0 mi NNW 13.8 mph 21.9 mph N/A   Overcast
12:52 PM 23.0 °F 10.6 °F 19.4 °F 86% 30.12 in 10.0 mi North 13.8 mph 19.6 mph N/A   Overcast
1:12 PM 23.0 °F 10.6 °F 19.4 °F 86% 30.14 in 10.0 mi NNW 13.8 mph 23.0 mph N/A   Mostly Cloudy
1:52 PM 23.0 °F 12.4 °F 19.4 °F 86% 30.13 in 10.0 mi NNW 10.4 mph 17.3 mph N/A   Overcast
2:12 PM 23.0 °F 12.4 °F 19.4 °F 86% 30.13 in 10.0 mi North 10.4 mph 19.6 mph N/A   Overcast
2:32 PM 23.0 °F 11.7 °F 19.4 °F 86% 30.12 in 10.0 mi North 11.5 mph 19.6 mph N/A   Overcast
2:52 PM 23.0 °F 12.4 °F 17.6 °F 80% 30.10 in 10.0 mi North 10.4 mph 16.1 mph N/A   Overcast
3:13 PM 23.0 °F 12.4 °F 17.6 °F 80% 30.10 in 10.0 mi North 10.4 mph 20.7 mph N/A   Overcast
3:32 PM 23.0 °F 11.7 °F 17.6 °F 80% 30.10 in 10.0 mi North 11.5 mph - N/A   Mostly Cloudy
3:53 PM 23.0 °F 12.4 °F 17.6 °F 80% 30.10 in 10.0 mi North 10.4 mph 19.6 mph N/A   Mostly Cloudy
4:12 PM 23.0 °F 11.7 °F 17.6 °F 80% 30.11 in 10.0 mi North 11.5 mph 17.3 mph N/A   Overcast
4:32 PM 23.0 °F 13.1 °F 17.6 °F 80% 30.11 in 10.0 mi NNW 9.2 mph 16.1 mph N/A   Mostly Cloudy
5:12 PM 23.0 °F 13.1 °F 17.6 °F 80% 30.12 in 10.0 mi North 9.2 mph - N/A   Mostly Cloudy
5:32 PM 23.0 °F 14.7 °F 17.6 °F 80% 30.12 in 10.0 mi NNW 6.9 mph - N/A   Mostly Cloudy
5:53 PM 23.0 °F 11.7 °F 17.6 °F 80% 30.13 in 10.0 mi NNW 11.5 mph - N/A   Mostly Cloudy
6:12 PM 23.0 °F 13.9 °F 17.6 °F 80% 30.13 in 10.0 mi NNW 8.1 mph - N/A   Scattered Clouds
6:32 PM 23.0 °F 10.1 °F 17.6 °F 80% 30.13 in 10.0 mi NNW 15.0 mph 21.9 mph N/A   Mostly Cloudy
6:53 PM 23.0 °F 11.7 °F 15.8 °F 74% 30.12 in 10.0 mi NNW 11.5 mph 21.9 mph N/A   Overcast
7:12 PM 21.2 °F 9.5 °F 15.8 °F 80% 30.13 in 10.0 mi North 11.5 mph 19.6 mph N/A   Mostly Cloudy
7:32 PM 21.2 °F 9.5 °F 14.0 °F 74% 30.14 in 10.0 mi NNW 11.5 mph 23.0 mph N/A   Mostly Cloudy
7:53 PM 21.2 °F 9.5 °F 14.0 °F 74% 30.15 in 10.0 mi NNW 11.5 mph 19.6 mph N/A   Mostly Cloudy
8:12 PM 19.4 °F 7.9 °F 14.0 °F 80% 30.15 in 10.0 mi North 10.4 mph 23.0 mph N/A   Mostly Cloudy
8:32 PM 19.4 °F 6.6 °F 14.0 °F 80% 30.16 in 10.0 mi NNW 12.7 mph 21.9 mph N/A   Mostly Cloudy
8:53 PM 19.4 °F 7.9 °F 14.0 °F 80% 30.17 in 10.0 mi NNW 10.4 mph 19.6 mph N/A   Mostly Cloudy
9:12 PM 19.4 °F 7.2 °F 12.2 °F 74% 30.18 in 10.0 mi NNW 11.5 mph 18.4 mph N/A   Mostly Cloudy
9:32 PM 19.4 °F 7.9 °F 12.2 °F 74% 30.19 in 10.0 mi North 10.4 mph - N/A   Scattered Clouds
9:53 PM 17.6 °F 5.0 °F 12.2 °F 79% 30.20 in 10.0 mi NNW 11.5 mph 16.1 mph N/A   Clear
10:12 PM 17.6 °F 5.0 °F 10.4 °F 73% 30.21 in 10.0 mi NNW 11.5 mph 19.6 mph N/A   Clear
10:33 PM 17.6 °F 5.7 °F 12.2 °F 79% 30.21 in 10.0 mi NNW 10.4 mph 17.3 mph N/A   Clear
10:53 PM 17.6 °F 7.3 °F 10.4 °F 73% 30.21 in 10.0 mi NNW 8.1 mph - N/A   Clear
11:12 PM 17.6 °F 5.7 °F 10.4 °F 73% 30.20 in 10.0 mi NNW 10.4 mph - N/A   Clear
11:32 PM 17.6 °F 8.2 °F 10.4 °F 73% 30.21 in 10.0 mi NNW 6.9 mph - N/A   Clear
11:53 PM 17.6 °F 8.2 °F 10.4 °F 73% 30.21 in 10.0 mi North 6.9 mph - N/A   Clear